CW9785 Weather Reports


time (UTC)temp
C
wind
direction
speed
KPH
gust
KPH
rain 1hr
cm
rain 24hr
cm
rain mn
cm
humidity
%
barometer
mb
20260507144531 13 192 16.1 29.0 0.00 0.05 0.00 66 1015.0
20260507144022 13 240 16.1 32.2 0.00 0.05 0.00 70 1015.0
20260507143553 12 233 16.1 32.2 0.00 0.05 0.00 71 1015.0
20260507143028 12 227 11.3 24.1 0.00 0.05 0.00 75 1015.1
20260507142518 11 227 16.1 24.1 0.00 0.05 0.00 77 1015.1
20260507142030 11 242 12.9 24.1 0.00 0.05 0.00 79 1015.2
20260507141531 10 253 12.9 25.7 0.00 0.05 0.00 81 1015.2
20260507141022 10 213 12.9 25.7 0.00 0.05 0.00 83 1015.4
20260507140525 9 252 17.7 25.7 0.00 0.05 0.00 84 1015.4
20260507140034 9 242 16.1 22.5 0.00 0.10 0.00 87 1015.4
20260507135546 8 237 12.9 22.5 0.00 0.10 0.00 90 1015.5
20260507135036 8 217 11.3 20.9 0.00 0.10 0.00 91 1015.6
20260507134517 8 225 12.9 22.5 0.00 0.10 0.00 93 1015.7
20260507134028 7 252 8.0 24.1 0.00 0.10 0.00 93 1015.8
20260507133539 7 250 16.1 24.1 0.00 0.10 0.00 93 1015.8
20260507133018 6 245 11.3 22.5 0.00 0.10 0.00 93 1015.8
20260507132530 6 236 14.5 27.4 0.00 0.10 0.00 93 1015.9
20260507132041 6 233 16.1 27.4 0.00 0.10 0.00 94 1016.0
20260507131523 5 242 12.9 25.7 0.00 0.10 0.00 94 1016.0
20260507131034 5 260 14.5 24.1 0.00 0.10 0.00 94 1016.1
20260507130544 5 225 11.3 24.1 0.00 0.10 0.00 94 1016.1
20260507130024 4 240 14.5 24.1 0.00 0.13 0.00 93 1016.1
20260507125530 4 241 11.3 27.4 0.00 0.13 0.00 93 1016.1
20260507125032 4 243 12.9 27.4 0.00 0.13 0.00 93 1016.0
20260507124523 3 221 11.3 22.5 0.00 0.13 0.00 93 1016.2
20260507124034 3 236 11.3 22.5 0.00 0.13 0.00 93 1016.1
20260507123535 3 248 11.3 22.5 0.00 0.13 0.00 92 1016.0
20260507123044 3 223 12.9 22.5 0.00 0.13 0.00 92 1016.0
20260507122533 3 229 11.3 19.3 0.00 0.13 0.00 92 1016.1
20260507122044 3 217 11.3 17.7 0.00 0.13 0.00 92 1016.0
20260507121524 3 231 11.3 22.5 0.00 0.13 0.00 92 1016.0
20260507121035 3 233 9.7 22.5 0.00 0.13 0.00 92 1016.2
20260507120526 3 236 12.9 19.3 0.00 0.13 0.00 92 1016.1
20260507120055 3 229 9.7 19.3 0.00 0.13 0.00 92 1016.1
20260507115536 3 229 11.3 19.3 0.00 0.13 0.00 92 1016.1
20260507115027 3 216 9.7 22.5 0.00 0.13 0.00 92 1016.2
20260507114538 3 271 11.3 19.3 0.00 0.13 0.00 92 1016.1
20260507114020 3 213 11.3 22.5 0.00 0.13 0.00 92 1016.1
20260507113527 3 215 12.9 22.5 0.00 0.13 0.00 92 1016.2
20260507113027 3 214 11.3 22.5 0.00 0.13 0.00 92 1016.2
20260507112517 3 236 12.9 22.5 0.00 0.13 0.00 92 1016.4
20260507112029 3 241 11.3 22.5 0.00 0.13 0.00 92 1016.4
20260507111531 3 234 11.3 22.5 0.00 0.13 0.00 92 1016.4
20260507111021 3 244 11.3 25.7 0.00 0.13 0.00 92 1016.3
20260507110532 3 240 11.3 19.3 0.00 0.13 0.00 92 1016.3
20260507110033 3 210 11.3 20.9 0.00 0.15 0.00 92 1016.3
20260507105523 3 223 11.3 19.3 0.00 0.15 0.00 92 1016.3
20260507105054 3 225 9.7 19.3 0.00 0.15 0.00 92 1016.2
20260507104544 3 211 9.7 17.7 0.00 0.15 0.00 92 1016.2
20260507104026 3 239 9.7 16.1 0.00 0.15 0.00 92 1016.3
20260507103537 3 230 9.7 20.9 0.00 0.15 0.00 92 1016.4
20260507103046 3 254 9.7 20.9 0.00 0.15 0.00 91 1016.5
20260507102528 3 261 8.0 20.9 0.00 0.15 0.00 91 1016.6
20260507102039 3 232 9.7 20.9 0.00 0.15 0.00 91 1016.7
20260507101520 3 236 6.4 17.7 0.00 0.15 0.00 91 1016.7
20260507101057 3 261 8.0 17.7 0.00 0.15 0.00 91 1016.7
20260507100607 3 250 9.7 17.7 0.00 0.15 0.00 91 1016.8
20260507100026 3 229 8.0 14.5 0.00 0.15 0.00 91 1016.8
20260507095537 3 216 8.0 14.5 0.00 0.15 0.00 91 1016.9
20260507095019 3 263 8.0 16.1 0.00 0.15 0.00 91 1016.9
20260507094531 3 236 8.0 16.1 0.00 0.15 0.00 91 1016.9
20260507094041 4 254 6.4 16.1 0.00 0.15 0.00 91 1016.9
20260507093522 4 296 4.8 14.5 0.00 0.15 0.00 91 1017.0
20260507093031 4 235 8.0 14.5 0.00 0.15 0.00 91 1017.0
20260507092543 4 228 9.7 16.1 0.00 0.15 0.00 91 1017.1
20260507092024 4 228 9.7 14.5 0.00 0.15 0.00 91 1017.1
20260507091556 4 244 8.0 14.5 0.00 0.15 0.00 91 1017.1
20260507091046 4 222 6.4 16.1 0.00 0.15 0.00 91 1017.2
20260507090536 4 235 8.0 16.1 0.00 0.15 0.00 91 1017.3
20260507090031 4 241 8.0 17.7 0.00 0.15 0.00 91 1017.3
20260507085523 4 226 8.0 17.7 0.00 0.15 0.00 91 1017.4
20260507085034 4 254 9.7 16.1 0.00 0.15 0.00 91 1017.4
20260507084606 4 227 6.4 14.5 0.00 0.15 0.00 90 1017.6
20260507084026 4 263 8.0 16.1 0.00 0.15 0.00 90 1017.6
20260507083538 5 227 9.7 14.5 0.00 0.15 0.00 91 1017.6
20260507083018 5 238 8.0 14.5 0.00 0.15 0.00 90 1017.6
20260507082528 5 229 8.0 11.3 0.00 0.15 0.00 90 1017.6
20260507082039 5 240 4.8 12.9 0.00 0.15 0.00 90 1017.7
20260507081521 5 252 3.2 12.9 0.00 0.15 0.00 90 1017.7
20260507081032 5 236 3.2 9.7 0.00 0.15 0.00 90 1017.8
20260507080543 5 250 4.8 9.7 0.00 0.15 0.00 90 1017.9
20260507080054 5 236 3.2 9.7 0.00 0.18 0.00 90 1017.9
20260507075604 5 260 3.2 11.3 0.00 0.18 0.00 90 1018.0
20260507075045 5 244 3.2 11.3 0.00 0.18 0.00 90 1018.1
20260507074530 5 236 4.8 11.3 0.00 0.18 0.00 90 1018.1
20260507074022 5 243 6.4 9.7 0.00 0.18 0.00 90 1018.2
20260507073552 5 244 6.4 11.3 0.00 0.18 0.00 90 1018.2
20260507073030 5 211 4.8 11.3 0.00 0.18 0.00 90 1018.3
20260507072522 5 200 4.8 12.9 0.00 0.18 0.00 90 1018.3
20260507072032 5 211 4.8 12.9 0.00 0.18 0.00 90 1018.4
20260507071605 5 254 4.8 12.9 0.00 0.18 0.00 90 1018.5
20260507071045 6 259 4.8 11.3 0.00 0.18 0.00 90 1018.6
20260507070537 6 244 3.2 12.9 0.00 0.18 0.00 89 1018.7
20260507070026 6 218 4.8 12.9 0.00 0.20 0.00 90 1018.8
20260507065527 6 281 4.8 12.9 0.00 0.20 0.00 89 1018.8
20260507065018 6 221 4.8 11.3 0.00 0.20 0.00 89 1018.8
20260507064529 6 279 4.8 9.7 0.00 0.20 0.00 89 1018.8
20260507064101 6 250 4.8 8.0 0.00 0.20 0.00 89 1018.9
20260507063608 6 266 3.2 8.0 0.00 0.20 0.00 89 1018.9
20260507063027 6 283 3.2 8.0 0.00 0.20 0.00 89 1018.9
20260507062518 6 309 3.2 8.0 0.00 0.20 0.00 89 1018.8
20260507062027 6 270 3.2 8.0 0.00 0.20 0.00 89 1019.0
20260507061559 6 275 3.2 8.0 0.00 0.20 0.00 88 1019.0
20260507061020 6 271 3.2 6.4 0.00 0.20 0.00 88 1019.0
20260507060550 6 271 1.6 6.4 0.00 0.20 0.00 88 1019.1
20260507060037 6 268 1.6 6.4 0.00 0.20 0.00 88 1019.1
20260507055519 6 273 3.2 6.4 0.00 0.20 0.00 88 1019.1
20260507055030 6 276 1.6 4.8 0.00 0.20 0.00 87 1019.1
20260507054521 6 276 1.6 4.8 0.00 0.20 0.00 87 1019.2
20260507054023 6 276 0.0 8.0 0.00 0.20 0.00 87 1019.1
20260507053534 6 276 3.2 8.0 0.00 0.20 0.00 87 1019.1
20260507053024 6 302 1.6 8.0 0.00 0.20 0.00 87 1019.1
20260507052526 6 287 3.2 8.0 0.00 0.20 0.00 87 1019.1
20260507052033 6 250 3.2 8.0 0.00 0.20 0.00 87 1019.1
20260507051543 6 271 3.2 8.0 0.00 0.20 0.00 86 1019.2
20260507051033 6 225 3.2 6.4 0.00 0.20 0.00 86 1019.2
20260507050533 6 254 3.2 6.4 0.00 0.20 0.00 85 1019.2
20260507050021 6 243 1.6 6.4 0.00 0.20 0.20 85 1019.2
20260507045524 6 245 3.2 8.0 0.00 0.20 0.20 85 1019.1
20260507045035 6 257 3.2 8.0 0.00 0.20 0.20 85 1019.3
20260507044525 6 256 4.8 6.4 0.00 0.20 0.20 84 1019.4
20260507044026 6 248 1.6 4.8 0.00 0.20 0.20 84 1019.4
20260507043537 6 282 1.6 4.8 0.00 0.20 0.20 84 1019.4
20260507043026 7 277 1.6 6.4 0.00 0.20 0.20 84 1019.2
20260507042528 7 254 1.6 6.4 0.00 0.20 0.20 83 1019.2
20260507042019 7 285 3.2 6.4 0.00 0.20 0.20 83 1019.3
20260507041531 7 284 1.6 6.4 0.00 0.20 0.20 83 1019.4
20260507041101 7 284 1.6 6.4 0.00 0.20 0.20 83 1019.4
20260507040522 7 271 1.6 6.4 0.00 0.20 0.20 83 1019.4
20260507040032 7 288 1.6 8.0 0.00 0.20 0.20 83 1019.4
20260507035528 7 288 3.2 8.0 0.00 0.20 0.20 82 1019.4
20260507035019 7 288 3.2 6.4 0.00 0.20 0.20 82 1019.4
20260507034550 7 268 3.2 9.7 0.00 0.20 0.20 81 1019.3
20260507034040 7 308 3.2 9.7 0.00 0.20 0.20 81 1019.3
20260507033522 7 278 3.2 6.4 0.00 0.20 0.20 80 1019.4
20260507033031 7 287 1.6 6.4 0.00 0.20 0.20 80 1019.3
20260507032541 8 291 3.2 6.4 0.00 0.20 0.20 80 1019.2
20260507032023 8 270 1.6 6.4 0.00 0.20 0.20 79 1019.0
20260507031534 8 267 1.6 6.4 0.00 0.20 0.20 79 1019.0
20260507031044 8 279 1.6 6.4 0.00 0.20 0.20 78 1019.0
20260507030526 8 279 3.2 6.4 0.00 0.20 0.20 78 1018.9
20260507030035 8 298 1.6 6.4 0.00 0.20 0.20 77 1018.8
20260507025546 8 299 1.6 4.8 0.00 0.20 0.20 76 1018.7
20260507025027 8 281 1.6 4.8 0.00 0.20 0.20 76 1018.6
20260507024538 8 281 1.6 4.8 0.00 0.20 0.20 76 1018.5
20260507024019 8 281 0.0 6.4 0.00 0.20 0.20 76 1018.4
20260507023555 8 281 1.6 6.4 0.00 0.20 0.20 76 1018.3
20260507023034 9 281 1.6 3.2 0.00 0.20 0.20 75 1018.3
20260507022524 9 281 0.0 1.6 0.00 0.20 0.20 75 1018.3
20260507022025 9 281 0.0 1.6 0.00 0.20 0.20 75 1018.2
20260507021536 9 281 1.6 1.6 0.00 0.20 0.20 75 1018.3
20260507021027 9 281 1.6 4.8 0.00 0.20 0.20 75 1018.2
20260507020529 9 281 1.6 4.8 0.00 0.20 0.20 75 1018.2
20260507020038 9 292 1.6 4.8 0.00 0.20 0.20 76 1018.2
20260507015529 10 281 1.6 4.8 0.00 0.20 0.20 76 1018.3
20260507015031 10 281 1.6 3.2 0.00 0.20 0.20 76 1018.3
20260507014521 10 281 1.6 6.4 0.00 0.20 0.20 75 1018.2
20260507014033 10 281 3.2 6.4 0.00 0.20 0.20 75 1018.3
20260507013534 10 287 1.6 4.8 0.00 0.20 0.20 75 1018.2
20260507013023 10 5 1.6 3.2 0.00 0.20 0.20 75 1018.1
20260507012524 10 5 1.6 4.8 0.00 0.20 0.20 75 1018.1
20260507012035 10 5 1.6 4.8 0.00 0.20 0.20 75 1018.0
20260507011526 10 5 1.6 4.8 0.00 0.20 0.20 74 1018.0
20260507011026 10 5 0.0 4.8 0.00 0.20 0.20 74 1017.9
20260507010553 10 5 1.6 6.4 0.00 0.20 0.20 73 1017.7
20260507010019 10 5 1.6 6.4 0.00 0.20 0.20 73 1017.8
20260507005530 10 5 3.2 4.8 0.00 0.20 0.20 73 1017.9
20260507005031 10 23 1.6 3.2 0.00 0.20 0.20 72 1017.9
20260507004520 10 23 0.0 4.8 0.00 0.20 0.20 72 1017.8
20260507004022 10 23 1.6 6.4 0.00 0.20 0.20 72 1017.8
20260507003534 10 33 1.6 6.4 0.00 0.20 0.20 72 1017.7
20260507003043 10 84 0.0 4.8 0.00 0.20 0.20 71 1017.8
20260507002532 10 84 1.6 4.8 0.00 0.20 0.20 71 1017.7
20260507002044 10 84 1.6 4.8 0.00 0.20 0.20 71 1017.6
20260507001524 10 84 1.6 6.4 0.00 0.20 0.20 71 1017.6
20260507001035 10 98 3.2 6.4 0.00 0.20 0.20 71 1017.5
20260507000544 10 360 1.6 3.2 0.00 0.20 0.20 70 1017.6
20260507000032 10 360 1.6 3.2 0.00 0.20 0.20 70 1017.7
20260506235534 10 360 0.0 4.8 0.00 0.20 0.20 70 1017.8
20260506235023 11 360 3.2 4.8 0.00 0.20 0.20 70 1017.8
20260506234521 11 360 3.2 8.0 0.00 0.20 0.20 70 1017.8
20260506234032 11 301 3.2 8.0 0.00 0.20 0.20 70 1017.7
20260506233543 11 360 4.8 8.0 0.00 0.20 0.20 69 1017.6
20260506233031 11 38 3.2 8.0 0.00 0.20 0.20 69 1017.3
20260506232542 11 42 3.2 8.0 0.00 0.20 0.20 68 1017.3
20260506232022 11 28 3.2 9.7 0.00 0.20 0.20 68 1017.4
20260506231533 11 198 4.8 9.7 0.00 0.20 0.20 68 1017.5
20260506231035 11 29 6.4 8.0 0.00 0.20 0.20 68 1017.6
20260506230526 11 74 4.8 9.7 0.00 0.20 0.20 69 1017.5
20260506230034 11 63 3.2 9.7 0.00 0.20 0.20 70 1017.4
20260506225536 11 31 4.8 11.3 0.00 0.20 0.20 71 1017.4
20260506225027 11 66 4.8 11.3 0.00 0.20 0.20 70 1017.4
20260506224538 11 96 4.8 9.7 0.00 0.20 0.20 70 1017.4
20260506224020 11 29 6.4 14.5 0.00 0.20 0.20 72 1017.4
20260506223529 11 40 6.4 14.5 0.00 0.20 0.20 72 1017.4
20260506223038 11 24 8.0 14.5 0.00 0.20 0.20 73 1017.5
20260506222519 10 24 8.0 14.5 0.00 0.20 0.20 74 1017.5
20260506222026 10 88 6.4 11.3 0.00 0.20 0.20 73 1017.5
20260506221538 10 43 3.2 11.3 0.00 0.20 0.20 73 1017.6
20260506221019 10 36 6.4 14.5 0.00 0.20 0.20 73 1017.6
20260506220530 10 15 6.4 14.5 0.00 0.20 0.20 74 1017.7
20260506220040 10 41 4.8 9.7 0.00 0.20 0.20 76 1017.7
20260506215520 10 33 3.2 12.9 0.00 0.20 0.20 75 1017.6
20260506215031 10 36 3.2 12.9 0.00 0.20 0.20 75 1017.6
20260506214522 10 41 6.4 11.3 0.00 0.20 0.20 76 1017.4
20260506214053 10 214 4.8 14.5 0.00 0.20 0.20 76 1017.5
20260506213534 10 111 8.0 14.5 0.00 0.20 0.20 75 1017.6
20260506213023 10 104 4.8 9.7 0.00 0.20 0.20 76 1017.6
20260506212534 10 30 6.4 14.5 0.00 0.20 0.20 76 1017.6
20260506212035 10 67 6.4 14.5 0.00 0.20 0.20 77 1017.8
20260506211545 10 93 4.8 17.7 0.00 0.20 0.20 78 1017.9
20260506211035 10 104 4.8 17.7 0.00 0.20 0.20 78 1018.0
20260506210542 10 36 8.0 14.5 0.00 0.20 0.20 79 1017.9
20260506210020 9 28 6.4 11.3 0.00 0.20 0.20 80 1017.9
20260506205531 9 65 3.2 11.3 0.00 0.20 0.20 80 1018.1
20260506205023 9 92 4.8 11.3 0.00 0.20 0.20 80 1018.0
20260506204524 9 44 6.4 16.1 0.00 0.20 0.20 80 1018.0
20260506204035 9 30 6.4 16.1 0.00 0.20 0.20 80 1018.1
20260506203546 9 67 3.2 14.5 0.00 0.20 0.20 81 1018.0
20260506203034 9 96 6.4 12.9 0.00 0.20 0.20 81 1018.1
20260506202606 9 17 1.6 16.1 0.00 0.20 0.20 82 1018.2
20260506202026 9 104 6.4 16.1 0.00 0.20 0.20 81 1018.2
20260506201537 9 107 8.0 20.9 0.00 0.20 0.20 82 1018.2
20260506201019 9 110 4.8 20.9 0.00 0.20 0.20 83 1018.2
20260506200529 9 105 9.7 17.7 0.00 0.20 0.20 85 1018.2
20260506200038 9 76 6.4 14.5 0.00 0.20 0.20 86 1018.1
20260506195519 8 106 6.4 14.5 0.00 0.20 0.20 88 1018.2
20260506195030 8 86 4.8 14.5 0.00 0.20 0.20 88 1018.2
20260506194537 8 71 4.8 12.9 0.00 0.20 0.20 89 1018.2
20260506194040 8 81 3.2 8.0 0.00 0.20 0.20 89 1018.3
20260506193530 8 37 3.2 14.5 0.00 0.20 0.20 89 1018.3
20260506193019 8 77 3.2 14.5 0.00 0.20 0.20 90 1018.3
20260506192519 8 26 6.4 12.9 0.00 0.20 0.20 91 1018.2
20260506192027 8 92 3.2 8.0 0.00 0.20 0.20 92 1018.3
20260506191519 7 65 3.2 12.9 0.00 0.20 0.20 93 1018.4
20260506191019 7 40 8.0 12.9 0.00 0.20 0.20 93 1018.4
20260506190531 7 96 6.4 11.3 0.00 0.20 0.20 93 1018.5
20260506190039 7 262 4.8 12.9 0.00 0.20 0.20 93 1018.6
20260506185529 7 92 6.4 12.9 0.00 0.20 0.20 93 1018.6
20260506185030 7 53 4.8 14.5 0.00 0.20 0.20 94 1018.6
20260506184522 7 94 6.4 14.5 0.00 0.20 0.20 93 1018.7
20260506184052 7 105 4.8 11.3 0.00 0.20 0.20 94 1018.8
20260506183542 7 102 3.2 11.3 0.00 0.20 0.20 94 1018.9
20260506183016 7 74 4.8 14.5 0.00 0.20 0.20 94 1019.0
20260506182548 7 106 8.0 14.5 0.00 0.20 0.20 94 1019.0
20260506182037 7 119 8.0 12.9 0.00 0.20 0.20 94 1018.9
20260506181527 7 103 4.8 14.5 0.00 0.20 0.20 94 1018.9
20260506181027 7 107 4.8 14.5 0.00 0.20 0.20 94 1019.0
20260506180538 7 38 6.4 14.5 0.00 0.20 0.20 95 1019.1
20260506180027 7 30 4.8 12.9 0.00 0.20 0.20 94 1019.1
20260506175529 7 26 4.8 14.5 0.00 0.20 0.20 95 1019.1
20260506175019 6 29 4.8 16.1 0.00 0.20 0.20 95 1019.0
20260506174521 6 34 6.4 16.1 0.00 0.20 0.20 95 1019.0
20260506174103 7 65 4.8 11.3 0.00 0.20 0.20 95 1019.0
20260506173523 7 107 4.8 11.3 0.00 0.20 0.20 95 1019.0
20260506173032 7 65 4.8 12.9 0.00 0.20 0.20 95 1018.9
20260506172540 6 68 4.8 14.5 0.00 0.20 0.20 95 1018.9
20260506172020 6 75 8.0 14.5 0.00 0.20 0.20 95 1019.0
20260506171531 6 44 4.8 14.5 0.00 0.20 0.20 95 1018.9
20260506171029 6 40 8.0 16.1 0.00 0.20 0.20 95 1019.0
20260506170520 6 19 6.4 16.1 0.00 0.20 0.20 95 1019.0
20260506170029 6 31 8.0 16.1 0.00 0.20 0.20 95 1019.0
20260506165530 6 20 6.4 9.7 0.00 0.20 0.20 95 1019.1
20260506165020 6 59 6.4 16.1 0.00 0.20 0.20 95 1019.1
20260506164522 6 43 4.8 16.1 0.00 0.20 0.20 95 1019.0
20260506164033 6 52 11.3 19.3 0.00 0.20 0.20 95 1019.0
20260506163525 6 34 9.7 19.3 0.00 0.20 0.20 95 1018.9
20260506163034 6 57 11.3 17.7 0.00 0.20 0.20 95 1018.7
20260506162545 6 36 6.4 16.1 0.00 0.20 0.20 95 1018.6
20260506162047 6 32 8.0 19.3 0.03 0.20 0.20 95 1018.5
20260506161536 6 98 8.0 19.3 0.03 0.20 0.20 95 1018.5
20260506161018 6 78 6.4 20.9 0.03 0.20 0.20 95 1018.6
20260506160558 6 28 8.0 20.9 0.03 0.20 0.20 95 1018.7
20260506160032 6 34 8.0 19.3 0.03 0.20 0.20 95 1018.6
20260506155523 6 42 9.7 19.3 0.03 0.20 0.20 95 1018.5
20260506155020 6 64 11.3 19.3 0.03 0.20 0.20 95 1018.4
20260506154531 6 28 9.7 19.3 0.03 0.20 0.20 95 1018.4
20260506154022 6 27 11.3 19.3 0.03 0.20 0.20 95 1018.3
20260506153523 5 21 9.7 17.7 0.03 0.20 0.20 95 1018.3
20260506153102 5 40 12.9 17.7 0.03 0.20 0.20 95 1018.2
20260506152521 6 30 11.3 20.9 0.00 0.18 0.18 95 1018.2
20260506152053 5 19 11.3 20.9 0.00 0.18 0.18 95 1018.1
20260506151542 6 39 9.7 19.3 0.00 0.18 0.18 95 1018.0
20260506151025 5 58 9.7 19.3 0.03 0.18 0.18 95 1018.0
20260506150555 6 9 9.7 19.3 0.03 0.18 0.18 95 1018.1
20260506150023 6 52 8.0 14.5 0.03 0.18 0.18 95 1018.0
20260506145526 6 30 4.8 16.1 0.03 0.18 0.18 95 1018.0
20260506145036 5 67 8.0 17.7 0.03 0.18 0.18 95 1018.0